Location: Lisboa
(38.7223°N, 9.1393°W)
Time: 16:20:25
(UTC+00:00)

Tiangong - Visible Passes

Search period start: 27 February 2024 00:00
Search period end: 08 March 2024 00:00
Orbit: 375 x 385 km, 41.5° (Epoch: 26 February)

Date Brightness Start Highest point End Pass type
(mag) Time Alt. Az. Time Alt. Az. Time Alt. Az.
27 Feb -0.3 19:11:19 10° SSW 19:13:29 18° SSE 19:14:57 13° ESE visible
27 Feb 1.1 20:46:49 10° WSW 20:47:06 12° WSW 20:47:06 12° WSW visible
28 Feb -2.0 19:45:48 10° SW 19:48:49 51° SSE 19:49:12 47° SE visible
29 Feb -0.7 20:21:13 10° W 20:23:17 37° W 20:23:17 37° W visible
01 Mar -2.2 19:19:55 10° WSW 19:23:01 82° SSE 19:25:06 19° ENE visible
01 Mar 1.3 20:56:51 10° WNW 20:57:12 13° WNW 20:57:12 13° WNW visible
02 Mar -1.8 19:55:23 10° W 19:58:26 54° N 19:58:53 48° NNE visible
03 Mar -2.0 18:53:51 10° W 18:56:57 71° NNW 19:00:03 10° ENE visible
03 Mar -0.1 20:30:50 10° WNW 20:32:34 28° WNW 20:32:34 28° WNW visible
04 Mar -1.6 19:29:14 10° W 19:32:16 48° N 19:34:02 21° ENE visible
04 Mar 1.5 21:06:04 10° WNW 21:06:08 10° WNW 21:06:08 10° WNW visible
05 Mar -1.9 20:04:28 10° WNW 20:07:32 55° N 20:07:32 55° N visible
06 Mar -1.6 19:02:46 10° WNW 19:05:48 48° N 19:08:49 10° E visible
06 Mar 0.2 20:39:30 10° WNW 20:40:58 25° WNW 20:40:58 25° WNW visible
07 Mar -2.2 19:37:46 10° WNW 19:40:52 69° NNE 19:42:16 29° E visible
